Location: Jetmore Motorplex
(37.9889°N, 99.8876°W)
Time: 09:30:08
(UTC+00:00)

STARLINK-30 - Pass Details

Date: 17 February 2020
Orbit: 528 x 531 km, 53.0° (Epoch: 28 March)

Event Time Altitude Azimuth Distance (km) Brightness Sun altitude
Rises 02:16:46 0° 237° (WSW) 2,652 7.9 -23.8°
Reaches altitude 10° 02:19:00 10° 242° (WSW) 1,767 7.0 -24.2°
Enters shadow 02:22:44 56° 306° (NW) 633 4.1 -25.0°
